Hourly Data Report for September 26, 2017

All times are specified in Local Standard Time (LST). Add 1 hour to adjust for Daylight Saving Time where and when it is observed.

NORTH CAPE
PRINCE EDWARD ISLAND

47°03'29.000" N
63°59'55.000" W
7.60 m
8300516
71987
WNE

Download Data

Hourly Data (September 2017)
Hourly Data Report for September 26, 2017
Temp Definition
°C
Dew Point Temp Definition
°C
Rel Hum Definition
%
Wind Dir Definition
10's deg

Wind Spd Definition
km/h
Visibility Definition
km
Stn Press Definition
kPa
Hmdx Definition


Wind Chill Definition


Weather Definition


TIME
00:00 20.3 16.3 78 23 40   101.00 25   LegendNANA
01:00 19.9 16.4 80 23 42   100.97     LegendNANA
02:00 19.6 16.5 82 23 42   100.93     LegendNANA
03:00 18.7 16.2 85 23 41   100.90     LegendNANA
04:00 18.5 16.3 87 23 41   100.88     LegendNANA
05:00 18.2 16.2 88 23 40   100.88     LegendNANA
06:00 17.9 16.1 89 23 39   100.89     LegendNANA
07:00 17.5 15.8 90 23 37   100.93     LegendNANA
08:00 17.2 15.6 91 23 34   100.95     LegendNANA
09:00 17.6 15.8 89 23 31   100.96     LegendNANA
10:00 17.8 15.8 88 23 27   100.99     LegendNANA
11:00 18.6 16.0 85 23 26   100.98     LegendNANA
12:00 18.8 16.0 84 24 21   101.02     LegendNANA
13:00 17.7 14.4 82 36 29   101.16     LegendNANA
14:00 17.1 12.9 77 4 30   101.21     LegendNANA
15:00 16.4 11.6 74 4 38   101.29     LegendNANA
16:00 15.4 12.3 82 4 39   101.36     LegendNANA
17:00 14.6 11.2 80 4 41   101.46     LegendNANA
18:00 14.4 11.8 85 5 36   101.56     LegendNANA
19:00 14.2 10.8 80 6 33   101.65     LegendNANA
20:00 14.0 10.0 77 6 30   101.72     LegendNANA
21:00 13.7 10.0 78 7 30   101.74     LegendNANA
22:00 13.6 9.5 76 8 27   101.78     LegendNANA
23:00 13.5 9.3 76 8 25   101.80     LegendNANA

Notes on Data Quality.

Legend

  • E = Estimated
  • M = Missing
  • NA = Not Available
  • ‡ = Partner data that is not subject to review by the National Climate Archives
Date modified: